Location: Boiro
(42.6475°N, 8.8834°W)
Time: 03:07:36
(UTC+01:00)

Vanguard 1 Rocket - Pass Details

Date: 07 December 2021
Orbit: 651 x 4224 km, 34.3° (Epoch: 21 January)

Event Time Altitude Azimuth Distance (km) Brightness Sun altitude
Rises 03:31:03 0° 237° (WSW) 4,061 - -57.4°
Reaches altitude 10° 03:33:22 10° 232° (SW) 3,386 - -57.0°
Maximum altitude 03:41:54 51° 159° (SSE) 2,437 - -55.6°
Exits shadow 03:46:11 41° 116° (ESE) 3,159 10.0 -54.9°
Drops below altitude 10° 03:58:21 10° 91° (E) 6,256 12.0 -52.8°
Sets 04:04:28 0° 87° (E) 7,758 12.7 -51.8°
